Starlink 32386

operational
NORAD ID: 61213 Int'l Des: 2024-171 Owner: SPXS Country: US Constellation: starlink
LEOCIRCULAR

关于 Starlink 32386

正在加载描述...

实时位置

正在加载3D地球...

即将过境

高度历史

Altitude vs Time

uPlot chart will show altitude changes over time

两行轨道根数

1 61213U 24171P 26035.51153800 .00000187 00000-0 18451-4 0 9996
2 61213 53.1596 116.2069 0000947 86.6616 273.4493 15.30187803 77295
Epoch: Feb 4, 2026 • Age: 16 hours

当前状态

高度 481.1 km
速度 7.63 km/s
星下点 52.94°N, 6.4°W
发射日期 Sep 20, 2024
运行时间 1.3 years
类型 internet

技术详情

分类 Payload
质量 730.00 kg
干质量 700.00 kg
总质量 730.00 kg
长度 0.30 m
直径 4.10 m
跨度 29.00 m
形状 Box + pan
制造商 SPXS
平台类型 Starlink V2M
阶段状态 In Orbit
所有者/国家 SPXS/US

大型星座

Loading constellations...